Starlink 30418

operational
NORAD ID: 57829 Int'l Des: 2023-138 Owner: SPXS Country: US Constellation: starlink
LEOCIRCULAR

关于 Starlink 30418

正在加载描述...

实时位置

正在加载3D地球...

即将过境

高度历史

Altitude vs Time

uPlot chart will show altitude changes over time

两行轨道根数

1 57829U 23138X 25307.99764714 .00000473 00000-0 50059-4 0 9999
2 57829 43.0024 198.6193 0000818 257.5567 102.5183 15.02537462119643
Epoch: Nov 3, 2025 • Age: 14 hours

当前状态

高度 558.8 km
速度 7.58 km/s
星下点 -0.51°S, 129.43°E
发射日期 Sep 9, 2023
运行时间 2.1 years
类型 internet

技术详情

分类 Payload
质量 730.00 kg
干质量 700.00 kg
总质量 730.00 kg
长度 0.30 m
直径 4.10 m
跨度 29.00 m
形状 Box + pan
制造商 SPXS
平台类型 Starlink V2M
阶段状态 In Orbit
所有者/国家 SPXS/US

大型星座

Loading constellations...